{"data":{"norad_id":67374,"epoch":"2026-05-25T05:30:22.143744Z","epoch_age_seconds":45287,"freshness":"FRESH","line1":"1 67374U 26004M   26145.22942296  .00000636  00000+0  75219-4 0  9995","line2":"2 67374  97.7997 144.2113 0003463 183.7033 176.4158 14.87996944 19883","mean_motion":14.87996944,"eccentricity":0.0003463,"inclination_deg":97.7997,"raan_deg":144.2113,"arg_perigee_deg":183.7033,"mean_anomaly_deg":176.4158,"bstar":7.5219e-5,"rev_number":1988,"period_min":96.774392300096,"perigee_km":601.77680551273,"apogee_km":606.61276850841,"semimajor_km":6982.3317870106,"source":"CELESTRAK","updated_at":"2026-05-25T13:38:06.929491Z"}}